Home   Weather   Baton Rouge   Past weeks

Flag for USA Past Weather in Baton Rouge, Louisiana, USA — Yesterday and Last 2 Weeks

Now
71 °F

Light rain. Mostly cloudy.


Feels Like: 65 °F
Forecast: 64 / 70 °F
Wind: 8 mph from Southeast

Location: Baton Rouge Metropolitan - Ryan Field

Current Time: Jan 19, 2017 at 4:46:22 am

Latest Report: Jan 19, 2017 at 4:04 am


Visibility: 8 mi

Pressure: 29.89 "Hg

Humidity: 96%

Dew Point: 70 °F

Location of Baton RougeLocation

Past Weather in Baton Rouge — Graph

°F

Baton Rouge Temperature Yesterday

Maximum temperature yesterday: 80 °F (at 2:53 pm)
Minimum temperature yesterday: 64 °F (at 2:36 am)
Average temperature yesterday: 71 °F

High & Low Weather Summary for the Past Weeks

 TemperatureHumidityPressure
High80 °F (Jan 12, 11:53 am)100% (Jan 12, 5:53 am)30.78 "Hg (Jan 12, 5:53 am)
Low22 °F (Jan 7, 6:53 am)23% (Jan 8, 3:53 pm)29.84 "Hg (Jan 5, 3:53 pm)
Average58 °F80%30.23 "Hg
* Reported Jan 4 3:53 am — Jan 19 3:23 am, Baton Rouge, Weather by CustomWeather, © 2017

Note: Actual official high and low records may vary slightly from our data, if they occured in-between our weather recording intervals... More about our weather records

Advertising

Baton Rouge Weather History for the Previous 24 Hours

Scroll right to see more
 ConditionsComfort  
Time TempWeatherWind HumidityBarometerVisibility
3:23 am
Thu, Jan 19
72 °FMostly cloudy.9 mph93%29.91 "Hg10 mi
2:53 am72 °FMostly cloudy.9 mph93%29.92 "Hg9 mi
2:34 am72 °FMostly cloudy.10 mph93%29.93 "Hg9 mi
1:53 am72 °FMostly cloudy.8 mph91%29.94 "Hg10 mi
1:13 am72 °FMostly cloudy.8 mph91%29.96 "Hg10 mi
1:05 am71 °FMostly cloudy.7 mph93%29.96 "Hg10 mi
12:53 am71 °FOvercast.8 mph93%29.96 "Hg10 mi
12:02 am72 °FMostly cloudy.8 mph91%29.99 "Hg10 mi
11:53 pm
Wed, Jan 18
71 °FLow clouds.8 mph93%29.99 "Hg10 mi
10:53 pm72 °FLow clouds.8 mph91%30.00 "Hg10 mi
9:53 pm72 °FMostly cloudy.13 mph91%30.00 "Hg10 mi
9:27 pm72 °FPassing clouds.8 mph91%30.01 "Hg10 mi
8:53 pm72 °FPassing clouds.8 mph87%30.01 "Hg10 mi
7:53 pm72 °FPassing clouds.10 mph84%30.03 "Hg10 mi
6:53 pm74 °FPassing clouds.8 mph76%30.02 "Hg10 mi
5:53 pm74 °FPartly cloudy.8 mph76%30.01 "Hg10 mi
4:53 pm76 °FBroken clouds.12 mph72%30.00 "Hg10 mi
3:53 pm77 °FPassing clouds.13 mph66%30.00 "Hg10 mi
2:53 pm80 °FPartly sunny.13 mph58%30.00 "Hg10 mi
1:53 pm79 °FPartly sunny.14 mph62%30.02 "Hg10 mi
12:53 pm78 °FPartly sunny.8 mph64%30.05 "Hg10 mi
11:53 am78 °FPartly sunny.13 mph64%30.10 "Hg10 mi
11:40 am78 °FPartly sunny.10 mph66%30.11 "Hg10 mi
10:53 am75 °FPartly sunny.9 mph74%30.13 "Hg8 mi
9:53 am72 °FFog.12 mph87%30.13 "Hg5 mi
8:53 am69 °FFog.6 mph96%30.14 "Hg1 mi
7:53 am67 °FFog.8 mph97%30.12 "Hg1 mi
6:53 am66 °FFog.6 mph100%30.12 "Hg2 mi
6:21 am66 °FFog.6 mph96%30.12 "Hg3 mi
5:53 am65 °FFog.5 mph97%30.11 "Hg1 mi
4:53 am64 °FFog.No wind100%30.11 "Hg0 mi
Weather by CustomWeather, © 2017

See weather overviewHow to use our weather pages